Weather Roundup
Issued by NWS Springfield, MO

Home | Current Version | Previous Version | Text Only | Print | Product List | Glossary On
Versions: 1 2 3 4 5 6 7 8 9 10 11 12 13 14 15 16 17 18 19 20 21 22 23 24 25 26 27 28 29 30 31 32 33 34 35 36 37 38 39 40 41 42 43 44 45 46 47 48 49 50
845
NZUS99 KSGF 241357
HRRSGF

HOURLY WEATHER
NATIONAL WEATHER SERVICE SPRINGFIELD MO
900 AM CDT SUN SEP 24 2017

......SGF CWA......

CITY           SKY/WX    TMP DP  RH WIND       PRES   REMARKS
SPRINGFIELD    SUNNY     75  67  76 SE10      30.02S
JOPLIN         SUNNY     75  68  78 SE7       30.00R
WEST PLAINS    SUNNY     75  67  76 VRB3      30.07S
ROLLA          SUNNY     75  66  73 S7        30.07R
BRANSON        SUNNY     73  66  78 SE3       30.04S

......SURROUNDING SGF CWA......

CITY           SKY/WX    TMP DP  RH WIND       PRES   REMARKS
CHANUTE        SUNNY     74  67  78 SE9       29.97S
PARSONS        SUNNY     75  66  73 SE6       29.98R
COFFEYVILLE    SUNNY     75  67  76 S8        29.96R
EMPORIA        PTSUNNY   73  64  73 S14       29.95R
HARRISON AR    SUNNY     72  66  81 SE7       30.04S

......KANSAS AND MISSOURI......

CITY           SKY/WX    TMP DP  RH WIND       PRES   REMARKS
KANSAS CTY INT MOSUNNY   76  68  76 S12       29.98R
SEDALIA        SUNNY     76  69  79 SE8       30.03R
ST JOSEPH      SUNNY     76  68  76 S6        29.97R
ST LOUIS       SUNNY     78  67  68 SE7       30.07R
WICHITA        PTSUNNY   75  67  76 S13       29.93R
TOPEKA         SUNNY     75  67  76 S8        29.95S
OLATHE         SUNNY     71  67  87 S8        29.99R

......TENNESSEE......

CITY           SKY/WX    TMP DP  RH WIND       PRES   REMARKS
MEMPHIS        NOT AVBL
NASHVILLE      MOSUNNY   75  69  81 CALM      30.08S

......ARKANSAS.......

CITY           SKY/WX    TMP DP  RH WIND       PRES   REMARKS
FAYETTEVILLE   SUNNY     69  68  96 CALM      30.02R
FT SMITH       SUNNY     76  70  82 E7        29.98R
LITTLE ROCK    SUNNY     76  72  87 CALM      30.00S

......OKLAHOMA.......

CITY           SKY/WX    TMP DP  RH WIND       PRES   REMARKS
TULSA          MOSUNNY   77  67  71 SE9       29.94R
PONCA CITY     PTSUNNY   74  65  73 SE8       29.94R
MCALESTER      MOSUNNY   77  69  76 SE6       29.97R
OKLAHOMA CITY  PTSUNNY   73  66  78 S10       29.95R

......IOWA............

CITY           SKY/WX    TMP DP  RH WIND       PRES   REMARKS
DES MOINES     NOT AVBL
QUAD CITIES    SUNNY     74  62  66 SE6       30.05R

......ILLINOIS........

CITY           SKY/WX    TMP DP  RH WIND       PRES   REMARKS
QUINCY         NOT AVBL
CHICAGO        SUNNY     79  63  57 SW5       30.09S




USA.gov is the U.S. government's official web portal to all federal, state and local government web resources and services.